Regional Weather Roundup
Issued by NWS

Home | Current Version | Previous Version | Graphics & Text | Print | Product List | Glossary On
Versions: 1 2 3 4 5 6 7 8 9 10 11 12 13 14 15 16 17 18 19 20 21 22 23 24 25 26 27 28 29 30 31 32 33 34 35 36 37 38 39 40 41 42 43 44 45 46 47 48 49 50
000
ASUS43 KDTX 280710
RWRMI
MICHIGAN HOURLY REGIONAL WEATHER ROUNDUP
NATIONAL WEATHER SERVICE DETROIT/PONTIAC MI
300 AM EDT FRI JUL 28 2017

NOTE: "FAIR" INDICATES FEW OR NO CLOUDS BELOW 12,000 FEET WITH NO
SIGNIFICANT WEATHER AND/OR OBSTRUCTION TO VISIBILITY.

MIZ047>049-052>055-059>063-066>070-074>076-081>083-280800-
SOUTHEAST LOWER MICHIGAN

CITY           SKY/WX    TMP DP  RH WIND       PRES   REMARKS
ADRIAN         PTCLDY    66  59  78 NE7       29.94S
ALMA           CLEAR     59  58  95 W6        29.99S
ANN ARBOR      PTCLDY    64  59  83 N7        29.94S
BAD AXE        PTCLDY    59  57  92 CALM      29.97S
CARO           PTCLDY    57  56  95 CALM      29.96F FOG
DETROIT CITY   PTCLDY    65  61  87 N8        29.93F
DETROIT        MOCLDY    66  60  81 N6        29.94S
FLINT          MOCLDY    62  58  86 NE6       29.96F
GROSSE ILE     PTCLDY    67  61  81 N7        29.92R
HILLSDALE      CLOUDY    64  59  82 NE5       29.94S
HOWELL         CLOUDY    62  59  87 CALM      29.96S

CITY           SKY/WX    TMP DP  RH WIND       PRES   REMARKS
JACKSON        LGT RAIN  65  60  84 NE6       29.95F
LAMBERTVILLE   CLEAR     63  59  86 CALM      29.92S
LANSING        MOCLDY    62  58  86 NE6       29.97S
LAPEER         FAIR      59  58  95 CALM      29.97S
MASON          PTCLDY    61  60  95 CALM      29.96S
MONROE         CLEAR     64  59  86 N3        29.92S
MT. CLEMENS    PTCLDY    62  62 100 N7        29.92S
PONTIAC        MOCLDY    63  60  90 N8        29.94F
PORT HOPE        N/A     68  63  84 NE12      29.96R
PORT HURON     PTCLDY    64  61  88 N3        29.94S
TRI CITIES     PTCLDY    62  62 100 NW6       29.98S
MIDLAND        FAIR      58  58 100 CALM      29.98S
TROY           PTCLDY    65  60  84 N3        29.95S
SAGINAW HB     PTCLDY    59  59 100 CALM      29.97S
$$
MIZ043>046-050>051-056>058-064>065-071>073-077>080-280800-
SOUTHWEST LOWER MICHIGAN

CITY           SKY/WX    TMP DP  RH WIND       PRES   REMARKS
BATTLE CREEK   CLOUDY    67  61  81 NE7       29.96S
BENTON HARBOR  PTCLDY    68  60  75 NE6       29.93S
BIG RAPIDS     PTCLDY    61  58  91 CALM      29.99F
COLDWATER      CLOUDY    70  62  74 NE6       29.94S
FREMONT        FAIR      65  60  85 E5        29.98S
HOLLAND        MOCLDY    69  59  70 E7        29.96F
GRAND RAPIDS   PTCLDY    65  60  84 NE7       29.97S
IONIA          MOCLDY    62  58  87 NE7       29.96F
KALAMAZOO      CLOUDY    68  59  73 NE5       29.95S
LUDINGTON      MOCLDY    60  58  94 CALM      29.99S
MARSHALL       CLOUDY    65  65  98 CALM      29.95S
MOUNT PLEASANT   N/A     61  59  92 CALM      29.98F FOG
MUSKEGON       PTCLDY    68  60  75 NE6       29.97S
SOUTH HAVEN    PTCLDY    67  63  86 E5        29.94F
$$
MIZ016>042-280800-
NORTHERN LOWER MICHIGAN

CITY           SKY/WX    TMP DP  RH WIND       PRES   REMARKS
ALPENA         CLOUDY    61  59  93 W3        30.01R
BEAVER ISLAND  MOCLDY    60  56  89 NE3       30.03R
BELLAIRE       CLOUDY    56  55  94 CALM      30.02R
CADILLAC       CLOUDY    58  54  85 CALM      30.02S
CHARLEVOIX     CLOUDY    64  58  80 N6        30.05R
FRANKFORT      CLOUDY    64  60  88 CALM      30.02R
GAYLORD        CLOUDY    62  53  72 CALM      30.02S
GRAYLING       CLOUDY    54  52  92 CALM      30.02S
HARBOR SPRINGS CLOUDY    61  55  82 CALM      30.03R
HOUGHTON LAKE  PTCLDY    58  55  90 NE3       30.01S
MANISTEE       PTCLDY    59  57  93 CALM      30.00R
OSCODA         PTCLDY    59  58  94 CALM      29.98S
PELLSTON       CLOUDY    59  56  89 CALM      30.03S
ROGERS CITY    CLOUDY    60  58  92 CALM      30.02S
TRAVERSE CITY  CLOUDY    61  57  87 CALM      30.00S
$$
MIZ007>008-015-280800-
EASTERN UPPER MICHIGAN

CITY           SKY/WX    TMP DP  RH WIND       PRES   REMARKS
KINROSS        MOCLDY    59  56  89 N5        30.05R
MACKINAC ISLAN CLOUDY    61  59  94 NE7       30.03S
NEWBERRY       PTCLDY    53  52  97 N3        30.05R
S. S. MARIE    PTCLDY    64  54  69 NE3       30.04R
MUNISING         N/A     60  57  89 N6        30.06S
$$
MIZ004>006-011>014-085-280800-
CENTRAL UPPER MICHIGAN

CITY           SKY/WX    TMP DP  RH WIND       PRES   REMARKS
MANISTIQUE     CLOUDY    55  52  89 N9        30.03S
ESCANABA       PTCLDY    57  53  86 NW5       30.05S
MENOMINEE      CLEAR     58  53  84 N5        30.06S
SAWYER-GWINN   PTCLDY    59  52  77 N7        30.09S
$$
MIZ001>003-009>011-084-280800-
WESTERN UPPER MICHIGAN

CITY           SKY/WX    TMP DP  RH WIND       PRES   REMARKS
HOUGHTON       CLEAR     55  50  83 N5        30.08S
COPPER HARBOR    N/A     56  53  90 SW3       30.08R
IRONWOOD       FOG       53  52  96 CALM      30.11R VSB 1/4
$$

ABBREVIATIONS USED IN REMARKS
   TC - TEMPERATURE IN CELSIUS
  WCI - WIND CHILL INDEX
   HX - HEAT INDEX
  VSB - VISIBILITY




USA.gov is the U.S. government's official web portal to all federal, state and local government web resources and services.